Grand Junction, CO

8:46 PM MST on November 19, 2019 (GMT -0700)
Walker

Weather History for KGJT - September, 2019

Change the Weather History Date:

Monday, September 2, 2019

  Actual Average Record
Temperature  
Mean Temperature 79 °F 71 °F  
Max Temperature 98 °F 86 °F 98 °F (1995)
Min Temperature 60 °F 57 °F 41 °F (1973)
Degree Days  
Heating Degree Days 0 0  
Month to date heating degree days 0 0  
Since 1 July heating degree days 0 3  
Cooling Degree Days 14 7  
Month to date cooling degree days 30 14  
Year to date cooling degree days 1151 1033  
Growing Degree Days 29 (Base 50)    
Moisture  
Dew Point 33 °F    
Average Humidity 23    
Maximum Humidity 35    
Minimum Humidity 11    
Precipitation  
Precipitation 0.00 in 0.03 in 1.56 in (1938)
Month to date precipitation 0.00 0.07  
Year to date precipitation 6.86 5.92  
Snow  
Snow 0.00 in 0.00 in 0.00 in (2018)
Month to date snowfall 0.0 0.0  
Since 1 July snowfall 0.0 0.0  
Since 1 September snowfall 0.0 0.0  
Snow Depth 0.00 in    
Sea Level Pressure  
Sea Level Pressure 29.90 in    
Wind  
Wind Speed 7 mph (East)    
Max Wind Speed 16 mph    
Max Gust Speed 20 mph    
Visibility 10 miles    
Events      
T = Trace of Precipitation, MM = Missing Value Source: NWS Daily Summary

Daily Weather History Graph

Daily Weather History Graph

Search for Another Location

Airport or City:

Astronomy

Sep. 02, 2019 Rise Set
Actual Time 6:43 AM MDT 7:43 PM MDT
Civil Twilight 6:16 AM MDT 8:10 PM MDT
Nautical Twilight 5:43 AM MDT 8:43 PM MDT
Astronomical Twilight 5:09 AM MDT 9:16 PM MDT
Moon 10:28 AM MDT (9/2) 10:08 PM MDT (9/2)
Length of Visible Light 13h 54m
Length of Day
12h 59m
Waxing Crescent, 16% of the Moon is Illuminated
Sep 2
Waxing Crescent
Sep 5
First Quarter
Sep 13
Full
Sep 21
Last Quarter
Sep 28
New

Hourly Weather History & Observations

Time (MDT) Temp. Dew Point Humidity Pressure Visibility Wind Dir Wind Speed Gust Speed Precip Events Conditions
12:53 AM 72.0 °F 30.9 °F 22% 29.87 in 10.0 mi East 9.2 mph - N/A   Clear
1:53 AM 70.0 °F 32.0 °F 25% 29.88 in 10.0 mi ESE 11.5 mph - N/A   Clear
2:53 AM 69.1 °F 32.0 °F 25% 29.88 in 10.0 mi ESE 9.2 mph - N/A   Clear
3:53 AM 66.9 °F 30.9 °F 26% 29.90 in 10.0 mi East 10.4 mph - N/A   Clear
4:53 AM 68.0 °F 30.9 °F 25% 29.90 in 10.0 mi East 8.1 mph - N/A   Clear
5:53 AM 61.0 °F 32.0 °F 34% 29.94 in 10.0 mi East 8.1 mph - N/A   Clear
6:53 AM 63.0 °F 30.0 °F 29% 29.95 in 10.0 mi ESE 6.9 mph - N/A   Clear
7:53 AM 66.9 °F 32.0 °F 27% 29.99 in 10.0 mi Calm Calm - N/A   Clear
8:53 AM 72.0 °F 35.1 °F 26% 30.01 in 10.0 mi SE 5.8 mph - N/A   Clear
9:53 AM 79.0 °F 36.0 °F 21% 30.00 in 10.0 mi Calm Calm - N/A   Clear
10:53 AM 82.9 °F 36.0 °F 19% 29.99 in 10.0 mi SE 6.9 mph - N/A   Clear
11:53 AM 86.0 °F 37.0 °F 18% 29.97 in 10.0 mi Calm Calm - N/A   Clear
12:53 PM 90.0 °F 39.0 °F 17% 29.94 in 10.0 mi WSW 5.8 mph - N/A   Clear
1:53 PM 93.0 °F 41.0 °F 16% 29.91 in 10.0 mi West 11.5 mph - N/A   Clear
2:53 PM 95.0 °F 41.0 °F 15% 29.88 in 10.0 mi West 9.2 mph - N/A   Clear
3:53 PM 97.0 °F 37.9 °F 13% 29.85 in 10.0 mi WNW 8.1 mph - N/A   Clear
4:53 PM 97.0 °F 32.0 °F 10% 29.82 in 10.0 mi WNW 6.9 mph - N/A   Clear
5:53 PM 96.1 °F 35.1 °F 12% 29.82 in 10.0 mi WNW 6.9 mph - N/A   Clear
6:53 PM 93.9 °F 32.0 °F 11% 29.81 in 10.0 mi NW 6.9 mph - N/A   Clear
7:53 PM 87.1 °F 28.0 °F 12% 29.82 in 10.0 mi North 5.8 mph - N/A   Clear
8:53 PM 82.9 °F 26.1 °F 13% 29.83 in 10.0 mi NNE 8.1 mph - N/A   Clear
9:53 PM 75.9 °F 25.0 °F 15% 29.86 in 10.0 mi East 3.5 mph - N/A   Clear
10:53 PM 75.9 °F 28.9 °F 18% 29.86 in 10.0 mi ENE 6.9 mph - N/A   Clear
11:53 PM 71.1 °F 28.0 °F 20% 29.86 in 10.0 mi SE 4.6 mph - N/A   Clear